Other Public Products
Issued by NWS Grand Forks, ND

Home | Current Version | Previous Version | Text Only | Print | Product List | Glossary On
Versions: 1 2 3 4 5 6 7 8 9 10 11 12 13 14 15 16 17 18 19 20 21 22 23 24 25 26 27 28 29 30 31 32 33 34 35 36 37 38 39 40 41 42 43 44 45 46 47 48 49 50
000
FPUS83 KFGF 260331
OPUFGF
PRAIRIE TO PINES WEATHER ROUNDUP
NATIONAL WEATHER SERVICE EASTERN NORTH DAKOTA/GRAND FORKS ND
900 PM CST SUN JAN 25 2015

 **SATELLITE DATA USED TO AUGMENT SKY COVER AT AUTOMATED STATIONS**
 *****  WEATHER ACROSS EASTERN NORTH DAKOTA  *****

CITY           SKY/WX    TMP DP  RH WIND       PRES   REMARKS
GRAND FORKS    CLOUDY    26  20  77 S16       29.82F WCI  14
GRAND FORKS AF CLOUDY    27  23  86 SW12      29.80F WCI  16
GRAND CITY NWS   N/A     25 N/A N/A S14         N/A  WCI  13
BUXTON         NOT AVBL
DEVILS LAKE    CLOUDY    30  28  93 SW13      29.73F WCI  20
FARGO          CLOUDY    27  21  78 S17       29.86F WCI  14
WAHPETON ARPT  CLOUDY    27  21  80 S10       29.92F WCI  17
$$

 *****  WEATHER ACROSS CENTRAL AND WESTERN NORTH DAKOTA  *****

CITY           SKY/WX    TMP DP  RH WIND       PRES   REMARKS
JAMESTOWN      CLOUDY    32  30  92 S13       29.81F WCI  22
BISMARCK       CLOUDY    37  31  78 SW3       29.82F
MINOT          MOCLDY    39  31  72 SW16G28   29.71F
MINOT AFB      MOCLDY    37  36  97 W17       29.70F
GARRISON         N/A     36  32  85 SW9       29.74F
WILLISTON      PTCLDY    41  34  76 SW8       29.81R
DICKINSON      CLOUDY    44  35  70 W18       29.80F
HETTINGER      CLOUDY    41  33  73 W10       29.87S
$$

 *****  OTHER OBSERVATIONS NORTHEAST NORTH DAKOTA  *****

CITY           SKY/WX    TMP DP  RH WIND       PRES   REMARKS
WALHALLA         N/A     28  28 100 S15G24    29.66F WCI  17
LANGDON        MOCLDY    27  25  93 SW28      29.65F FOG     WCI  11
CAVALIER       FAIR      27  25  93 S16G23    29.71F WCI  14
GRAFTON        NOT AVBL
CANDO          MOCLDY    32  30  93 SW15      29.70F WCI  22
FORT TOTTEN      N/A     30  29  95 S9        29.95S WCI  22
ROLLA          MIX PCPN  28  28 100 SW32G43   29.59F WCI  12
RUGBY          FAIR      32  32 100 SW18      29.70F WCI  20
 ***** THE ABOVE OBSERVATIONS ARE NON NWS ARE NOT QUALITY
        CONTROLLED AND MAY MIS-REPORT RAIN FOR SNOW...
$$

 *****  OTHER OBSERVATIONS SOUTHEAST NORTH DAKOTA *****

CITY           SKY/WX    TMP DP  RH WIND       PRES   REMARKS
COOPERSTOWN    NOT AVBL
VALLEY CITY    NOT AVBL
OAKES            N/A     28  28 100 S14       29.88F WCI  17
GWINNER        CLOUDY    32  32 100 SW15      29.89F WCI  22
SHEYENNE NWR     N/A     27  23  85 S8        29.95  WCI  19
BUFFALO        NOT AVBL
WYNDMERE         N/A     27  23  86 S9          N/A  WCI  17
 ***** THE ABOVE OBSERVATIONS ARE NON NWS ARE NOT QUALITY
       CONTROLLED AND MAY MIS-REPORT RAIN FOR SNOW...
$$

  *****  WEATHER ACROSS NORTHERN MINNESOTA  *****

CITY           SKY/WX    TMP DP  RH WIND       PRES   REMARKS
FLAG ISLAND    CLOUDY    18  14  86 S15       29.75F WCI   3
WARROAD        CLOUDY    19  14  79 S8        29.78F WCI   9
ROSEAU         LGT SNOW  21  16  79 S15       29.77F WCI   8
HALLOCK        CLOUDY    25  21  86 S21       29.75F WCI  10
THF RVR FALLS  CLOUDY    23  18  80 S14       29.82F WCI  11
HALSTAD          N/A     26  19  77 S10         N/A  WCI  15
FOSSTON        CLOUDY    21  18  86 S12       29.87S WCI   9
BAUDETTE       CLOUDY    21  14  74 S8        29.81F WCI  11
WASKISH        CLOUDY    21  18  86 CALM      29.84F
CROOKSTON      CLOUDY    25  19  80 S16       29.86F WCI  12
$$
  *****  WEATHER ACROSS CENTRAL AND WEST MINNESOTA  *****

CITY           SKY/WX    TMP DP  RH WIND       PRES   REMARKS
BEMIDJI        CLOUDY    25  19  77 S7        29.85F WCI  17
PARK RAPIDS    CLOUDY    26  20  77 SW9       29.89F WCI  17
WADENA         CLOUDY    23  19  86 SW8       29.91F WCI  14
DETROIT LAKES  CLOUDY    25  19  80 S7        29.89F WCI  17
MOORHEAD       CLOUDY    27  25  93 S14       29.89F WCI  15
FERGUS FALLS   CLOUDY    25  21  86 S9        29.95F WCI  15
ELBOW LAKE     CLOUDY    24  22  93 S9        29.93F WCI  14
MORRIS MN      CLOUDY    27  25  93 S9        29.94F WCI  17
STAPLES        CLOUDY    23  19  86 S7        29.92F WCI  15
WHEATON        CLOUDY    25  19  80 S9        29.96F WCI  15
$$
  *****  WEATHER ELSEWHERE ACROSS MINNESOTA  *****

CITY           SKY/WX    TMP DP  RH WIND       PRES   REMARKS
DULUTH         CLOUDY    18  12  77 S5        29.95F WCI  11
INTRNTL FALLS  CLOUDY    22  13  68 S6        29.84F WCI  14
ELY            CLOUDY    16  10  79 S8        29.91F WCI   5
CLOQUET        MOCLDY    16  12  86 CALM      29.95F
BRAINERD       CLOUDY    22  15  75 S7        29.95F WCI  13
HIBBING        CLOUDY    19  12  74 SE9       29.91F WCI   8
ALEXANDRIA     CLOUDY    24  21  88 SW10      29.94F WCI  14
SAINT CLOUD    CLOUDY    23  18  81 S5        29.99F WCI  17
MINNEAPOLIS    MOCLDY    22  15  75 S6        30.04F WCI  14
$$

  *****  WEATHER ACROSS SOUTH DAKOTA  *****

CITY           SKY/WX    TMP DP  RH WIND       PRES   REMARKS
SIOUX FALLS    CLOUDY    32  30  92 CALM      30.01F
BROOKINGS      NOT AVBL
WATERTOWN      CLOUDY    30  28  92 S8        29.95F WCI  22
HURON          PTCLDY    32  30  92 S7        29.96F
SISSETON         N/A     26  24  92 S7        29.94F WCI  18
ABERDEEN       CLOUDY    32  29  88 S8        29.94F WCI  25
MITCHELL       CLEAR     34  31  88 S6        29.99F
PIERRE         MOCLDY    34  28  79 CALM      29.92F
MOBRIDGE       MOCLDY    35  30  82 SE9       29.85F
RAPID CITY     CLEAR     34  22  61 W6        29.95F
$$

  *****  SOME WEATHER IN NEARBY STATES *****

CITY           SKY/WX    TMP DP  RH WIND       PRES   REMARKS
GLASGOW MT     CLEAR     38  32  79 NW9       29.91R
GREAT FALLS MT CLOUDY    52  30  43 SW17      30.08R
CHEYENNE WY    CLEAR     44  25  47 NW9       30.18R
SCOTTSBLUFF NE CLEAR     36  31  82 NW7       30.11R
OMAHA NE       CLOUDY    36  32  85 CALM      30.08S
DES MOINES IA  CLOUDY    33  24  69 N6        30.08R
DAVENPORT IA   CLEAR     17  11  77 N10       30.07R WCI   5
CHICAGO IL     PTCLDY    25  15  66 NE14      29.98R WCI  13
EAU CLAIRE WI  MOCLDY    18  10  71 CALM      30.04F
LA CROSSE WI   PTCLDY    23  16  74 SE5       30.06F WCI  17
$$

  *****  SOME NATIONAL WEATHER *****

CITY           SKY/WX    TMP DP  RH WIND       PRES   REMARKS
LA GUARDIA NY  CLOUDY    32  12  43 N10       29.98R WCI  24
RALEIGH NC     CLOUDY    44  33  65 S6        29.83S
ATLANTA GA     LGT RAIN  52  37  58 W14G24    29.77R
NEW ORLEANS LA PTCLDY    56  44  64 W13       29.94R
OKLAHOMA CITY  CLEAR     42  26  53 NW5       30.15R
ALBUQUERQUE NM PTCLDY    44  25  47 N7        30.28S
SALT LAKE CITY PTCLDY    36  32  85 W7        30.39F
LOS ANGELES CA MOCLDY    67  39  35 NW7       30.02R
BOISE ID       CLEAR     35  32  88 CALM      30.41R
SEATTLE WA     PTCLDY    51  46  83 N5        30.04F
$$

*** WEATHER ACROSS MANITOBA...SASKATCHEWAN AND ONTARIO ***
                ***ONTARIO***

CITY           SKY/WX    TMP DP  RH WIND       PRES   REMARKS
GERALDTON      PTCLDY   -17 -22  76 CALM      29.97F
THUNDER BAY    FLURRIES   1  -4  78 NW2       30.04F
SIOUX LOOKOUT    N/A     14   7  73 S10       29.79F WCI   1
TORONTO        MOCLDY    10   0  61 N13       30.05F WCI  -5
BIG TROUT LK   FLURRIES   1  -2  85 SE8       29.80F WCI -12
PICKLE LAKE    NOT AVBL
DRYDEN         CLOUDY    14   9  79 S9        29.79F WCI   2
KENORA         LGT SNOW  14   9  79 S12       29.73F WCI   0
$$
                *** MANITOBA***

CITY           SKY/WX    TMP DP  RH WIND       PRES   REMARKS
BRANDON        PTCLDY    30  28  93 W18       29.60F WCI  18
DAUPHIN        CLEAR     34  27  75 W18G25    29.53S WCI  23
ISLAND LAKE    LGT SNOW   9   5  85 SE10      29.62F VSB 1   WCI  -6
PILOT MOUND      N/A     27  25  93 S28G33      N/A  WCI  11
THE PAS        CLOUDY    34  32  93 NW18      29.43R WCI  23
THOMPSON       LGT SNOW   5   1  85 NE8       29.59R WCI  -8
WINNIPEG       MOCLDY    21  18  86 S22G32    29.67F WCI   5
LYNN LAKE      CLOUDY     5   1  85 NE7       29.59R WCI  -7
CHURCHILL      PTCLDY   -11 -17  77 E10       29.86F WCI -30
GILLAM         LGT SNOW   1  -2  85 E5        29.71F WCI  -8
$$
                ***SASKATCHEWAN***

CITY           SKY/WX    TMP DP  RH WIND       PRES   REMARKS
ESTEVAN        PTCLDY    37  34  87 W16       29.72
KINDERSLEY     MOCLDY    36  30  80 SW6       29.83R
LLOYDMINSTER   CLEAR     37  28  70 W14       29.75R
PRINCE ALBERT  CLEAR     41  30  65 W15G23    29.61R
REGINA         MOCLDY    37  32  81 W18       29.74R



USA.gov is the U.S. government's official web portal to all federal, state and local government web resources and services.